This demonstration page uses our WeatherBlox Daily Observations layout. Learn more.

Left ArrowRight Arrow

Hourly Observations for January 10, 2016

Temp ( °F °C ) Dew Point ( °F °C ) Humidity (%) Winds ( mph kmh ) Pressure ( in mb ) Visibility ( mi km ) Precip ( " mm )
12:59 am 00:59 Cloudy with Light Rain 59 15 56 13.3 90 90 SE 7 11 29.75 1008 4 6 0.03 0.76
1:59 am 01:59 Cloudy with Light Rain 61 16.1 57 13.9 87 87 SSE 12 19 29.72 1006 8 13 0.02 0.51
2:59 am 02:59 Mostly Cloudy 61 16.1 56 13.3 84 84 S 9 15 29.69 1005 10 16 0.00 0.03
3:59 am 03:59 Mostly Cloudy 62 16.7 58 14.4 86 86 SSE 13 20 29.64 1004 10 16 0.00 0.00
4:18 am 04:18 Cloudy 62 16.7 58 14.4 86 86 S 10 17 29.65 1004 10 16 0.00 0.00
4:37 am 04:37 Cloudy 62 16.7 59 15 90 90 S 12 19 29.62 1003 10 16 0.00 0.00
4:59 am 04:59 Cloudy 63 17.2 59 15 87 87 S 10 17 29.62 1003 10 16 0.00 0.00
5:59 am 05:59 Cloudy 64 17.8 60 15.6 87 87 SSW 9 15 29.61 1003 10 16 0.00 0.00
6:59 am 06:59 Mostly Cloudy 64 17.8 60 15.6 87 87 S 8 13 29.60 1002 10 16 0.00 0.00
7:59 am 07:59 Mostly Cloudy 64 17.8 59 15 84 84 SSW 9 15 29.58 1002 10 16 0.00 0.00
8:36 am 08:36 Cloudy 64 17.8 60 15.6 87 87 SSW 10 17 29.59 1002 10 16 0.01 0.25
8:59 am 08:59 Cloudy 64 17.8 59 15 84 84 SSW 10 17 29.59 1002 10 16 0.01 0.25
9:59 am 09:59 Mostly Cloudy 64 17.8 58 14.4 81 81 SW 14 22 29.59 1002 10 16 0.00 0.00
10:59 am 10:59 Mostly Cloudy 65 18.3 57 13.9 76 76 SW 14 22 29.57 1001 10 16 0.00 0.00
11:59 am 11:59 Mostly Cloudy 66 18.9 54 12.2 65 65 SW 15 24 29.54 1000 10 16 0.00 0.00
12:59 pm 12:59 Mostly Cloudy 68 20 50 10 53 53 SW 21 33 29.49 999 10 16 0.00 0.00
1:59 pm 13:59 Partly Cloudy 68 20 46 7.8 45 45 SW 20 31 29.50 999 10 16 0.00 0.00
2:59 pm 14:59 Partly Cloudy 67 19.4 44 6.7 44 44 WSW 18 30 29.51 999 10 16 0.00 0.00
3:59 pm 15:59 Mostly Cloudy 64 17.8 44 6.7 48 48 W 15 24 29.55 1001 10 16 0.00 0.00
4:59 pm 16:59 Mostly Cloudy 61 16.1 40 4.4 46 46 W 20 31 29.59 1002 10 16 0.00 0.00
5:59 pm 17:59 Mostly Clear 58 14.4 40 4.4 51 51 W 14 22 29.63 1003 10 16 0.00 0.00
6:59 pm 18:59 Partly Cloudy 57 13.9 40 4.4 53 53 W 18 30 29.66 1005 10 16 0.00 0.00
7:59 pm 19:59 Clear 54 12.2 35 1.7 49 49 W 21 33 29.70 1006 10 16 0.00 0.00
8:59 pm 20:59 Clear 51 10.6 32 0 48 48 W 21 33 29.75 1008 10 16 0.00 0.00
9:59 pm 21:59 Clear 48 8.9 30 -1.1 50 50 W 22 35 29.79 1009 10 16 0.00 0.00
10:59 pm 22:59 Clear 46 7.8 30 -1.1 54 54 W 22 35 29.82 1010 10 16 0.00 0.00
11:59 pm 23:59 Clear 44 6.7 27 -2.8 51 51 WNW 24 39 29.85 1011 10 16 0.00 0.00

Powered by AerisWeather